Probability
0 0 0 0 0 0 0 0 0 0 0 0 0 0 0 0 0 0 0 0 0 0 0 0 0 0 0 0 0 0 0 0 0 0 0 0 0 0 0 0 0 0 0 0
0 0 0 0 0 0 0 0 0 0 0 0 0 0 0 0 0 0 0 0 0 0 0 0 0 0 0 0 0 0 0 0 0 0 0 0 0 0 0 0 0 0 0 0
0 0 0 0 0 0 0 0 0 0 0 0 0 0 0 0 0 0 0 0 0 0 0 0 0 0 0 0 0 0 0 0 0 0 0 0 0 0 0 0 0 0 0 0
0 0 0 0 0 0 0 0 0 0 0 0 0 0 0 0 0 0 0 0 0 0 0 0 0 0 0 0 0 0 0 0 0 0 0 0 0 0 0 0 0 0 0 0
0 0 0 0 0 0 0 0 0 0 0 0 0 0 0 0 0 0 0 0 0 0 0 0 0 0 0 0 0 0 0 0 0 0 0 0 0 0 0 0 0 0 0 0
0 0 0 0 0 0 0 0 0 0 0 0 0 0 0 0 0 0 0 0 0 0 0 0 0 0 0 0 0 0 0 0 0 0 0 0 0 0 0 0 0 0 0 0
0 0 0 0 0 0 0 0 0 0 0 0 0 0 0 0 0 0 0 0 0 0 0 0 0 0 0 0 0 0 0 0 0 0 0 0 0 0 0 0 0 0 0 0
0 0 0 0 0 0 0 0 0 0 0 0 0 0 0 0 0 0 0 0 0 0 0 0 0 0 0 0 0 0 0 0 0 0 0 0 0 0 0 0 0 0 0 0
0 0 0 0 0 0 0 0 0 0 0 0 0 0 0 0 0 0 0 0 0 0 0 0 0 0 0 0 0 0 0 0 0 0 0 0 0 0 0 0 0 0 0 0
0 0 0 0 0 0 0 0 0 0 0 0 0 0 0 0 0 0 0 0 0 0 0 0 0 0 0 0 0 0 0 0 0 0 0 0 0 0 0 0 0 0 0 0
0 0 0 0 0 0 0 0 0 0 0 0 0 0 0 0 0 0 0 0 0 0 0 0 0 0 0 0 0 0 0 0 0 0 0 0 0 0 0 0 0 0 0 0
0 0 0 0 0 0 0 0 0 0 0 0 0 0 0 0 0 0 0 0 0 0 0 0 0 0 0 0 0 0 0 0 0 0 0 0 0 0 0 0 0 0 0 0
0 0 0 0 0 0 0 0 0 0 0 0 0 0 0 0 0 0 0 0 0 0 0 0 0 0 0 0 0 0 0 0 0 0 0 0 0 0 0 0 0 0 0 0
0 0 0 0 0 0 0 0 0 0 0 0 0 0 0 0 0 0 0 0 0 0 0 0 0 0 0 0 0 0 0 0 0 0 0 0 0 0 0 0 0 0 0 0
0 0 0 0 0 0 0 0 0 0 0 0 0 0 0 0 0 0 0 0 0 0 0 0 0 0 0 0 0 0 0 0 0 0 0 0 0 0 0 0 0 0 0 0
0 0 0 0 0 0 0 0 0 0 0 0 0 0 0 0 0 0 0 0 0 0 0 0 0 0 0 0 0 0 0 0 0 0 0 0 0 0 0 0 0 0 0 0
0 0 0 0 0 0 0 0 0 0 0 0 0 0 0 0 0 0 0 0 0 0 0 0 0 0 0 0 0 0 0 0 0 0 0 0 0 0 0 0 0 0 0 0
0 0 0 0 0 0 0 0 0 0 0 0 0 0 0 0 0 0 0 0 0 0 0 0 0 0 0 0 0 0 0 0 0 0 0 0 0 0 0 0 0 0 0 0
0 0 0 0 0 0 0 0 0 0 0 0 0 0 0 0 0 0 0 0 0 0 0 0 0 0 0 0 0 0 0 0 0 0 0 0 0 0 0 0 0 0 0 0
0 0 0 0 0 0 0 0 0 0 0 0 0 0 0 0 0 0 0 0 0 0 0 0 0 0 0 0 0 0 0 0 0 0 0 0 0 0 0 0 0 0 0 0
0 0 0 0 0 0 0 0 0 0 0 0 0 0 0 0 0 0 0 0 0 0 0 0 0 0 0 0 0 0 0 0 0 0 0 0 0 0 0 0 0 0 0 0
0 0 0 0 0 0 0 0 0 0 0 0 0 0 0 0 0 0 0 0 0 0 0 0 0 0 0 0 0 0 0 0 0 0 0 0 0 0 0 0 0 0 0 0
0 0 0 0 0 0 0 0 0 0 0 0 0 0 0 0 0 0 0 0 0 0 0 0 0 0 0 0 0 0 0 0 0 0 0 0 0 0 0 0 0 0 0 0
0 0 0 0 0 0 0 0 0 0 0 0 0 0 0 0 0 0 0 0 0 0 0 0 0 0 0 0 0 0 0 0 0 0 0 0 0 0 0 0 0 0 0 0
0 0 0 0 0 0 0 0 0 0 0 0 0 0 0 0 0 0 0 0 0 0 0 0 0 0 0 0 0 0 0 0 0 0 0 0 0 0 0 0 0 0 0 0
0 0 0 0 0 0 0 0 0 0 0 0 0 0 0 0 0 0 0 0 0 0 0 0 0 0 0 0 0 0 0 0 0 0 0 0 0 0 0 0 0 0 0 0
0 0 0 0 0 0 0 0 0 0 0 0 0 0 0 0 0 0 0 0 0 0 0 0 0 0 0 0 0 0 0 0 0 0 0 0 0 0 0 0 0 0 0 0
Height
5582 5584 5583 5583 5585 5585 5584 5583 5582 5585 5584 5587 5583 5580 5576 5573 5569 5566 5562 5558 5554 5550 5546 5541 5536 5531 5526 5521 5516 5511 5507 5502 5498 5493 5490 5487 5484 5481 5480 5479 5479 5479 5480 5481
5568 5571 5570 5569 5572 5573 5572 5572 5570 5570 5572 5575 5570 5566 5563 5560 5556 5553 5550 5546 5541 5538 5533 5529 5524 5519 5514 5509 5503 5498 5494 5490 5485 5481 5478 5475 5472 5470 5469 5468 5468 5468 5469 5470
5555 5558 5554 5556 5563 5562 5561 5560 5559 5557 5561 5559 5555 5553 5550 5546 5543 5540 5536 5533 5529 5525 5520 5516 5511 5506 5501 5496 5491 5486 5482 5478 5474 5470 5467 5463 5461 5459 5458 5457 5458 5458 5459 5459
5541 5542 5540 5549 5551 5549 5547 5547 5547 5545 5546 5545 5542 5539 5537 5533 5530 5527 5523 5520 5516 5512 5507 5503 5498 5493 5488 5484 5479 5475 5471 5467 5463 5459 5456 5453 5450 5449 5448 5448 5448 5449 5449 5450
5528 5527 5527 5535 5538 5536 5534 5534 5535 5533 5532 5531 5528 5526 5525 5521 5517 5514 5510 5506 5502 5498 5494 5490 5486 5480 5476 5472 5467 5463 5459 5456 5452 5448 5446 5443 5441 5440 5439 5439 5440 5440 5441 5441
5516 5515 5515 5524 5526 5523 5521 5521 5523 5521 5519 5518 5515 5513 5513 5509 5504 5501 5497 5493 5489 5486 5482 5477 5473 5468 5464 5460 5456 5451 5448 5445 5442 5439 5436 5435 5433 5432 5432 5432 5432 5432 5433 5434
5504 5503 5504 5512 5512 5511 5510 5510 5509 5507 5506 5504 5502 5499 5498 5495 5491 5488 5484 5480 5476 5472 5469 5464 5460 5455 5451 5448 5444 5440 5437 5434 5431 5429 5427 5426 5425 5425 5424 5424 5425 5426 5427 5428
5493 5492 5497 5499 5499 5499 5497 5495 5494 5493 5492 5490 5488 5486 5483 5481 5478 5475 5471 5468 5464 5460 5456 5452 5447 5442 5439 5436 5432 5429 5426 5423 5422 5420 5418 5417 5417 5417 5417 5418 5419 5420 5421 5424
5483 5485 5486 5485 5485 5484 5483 5482 5481 5480 5479 5477 5475 5473 5471 5468 5465 5462 5458 5455 5451 5447 5444 5440 5435 5431 5428 5425 5421 5418 5415 5413 5412 5411 5409 5409 5409 5410 5411 5411 5413 5414 5417 5419
5470 5473 5473 5473 5472 5472 5470 5469 5468 5467 5465 5463 5461 5459 5457 5455 5452 5449 5446 5442 5439 5435 5432 5428 5424 5420 5417 5414 5410 5408 5406 5404 5403 5402 5402 5402 5402 5403 5404 5406 5408 5410 5412 5415
5458 5461 5461 5461 5460 5459 5458 5456 5455 5454 5452 5450 5448 5446 5444 5442 5440 5437 5434 5430 5427 5423 5420 5417 5414 5410 5407 5403 5401 5398 5397 5396 5395 5395 5395 5395 5396 5397 5398 5400 5402 5405 5408 5411
5448 5449 5448 5448 5447 5446 5445 5444 5442 5441 5440 5438 5435 5434 5432 5430 5427 5424 5421 5418 5415 5412 5409 5406 5403 5400 5397 5394 5391 5389 5388 5388 5387 5387 5388 5389 5390 5391 5393 5395 5397 5400 5403 5406
5436 5436 5435 5435 5434 5434 5432 5431 5430 5429 5427 5426 5424 5422 5420 5418 5415 5413 5410 5407 5404 5401 5398 5396 5393 5391 5388 5385 5383 5381 5380 5380 5379 5380 5381 5382 5384 5385 5387 5390 5392 5395 5398 5402
5425 5424 5423 5423 5423 5422 5421 5420 5419 5418 5416 5414 5413 5411 5408 5406 5404 5402 5399 5396 5393 5391 5388 5386 5384 5382 5380 5377 5375 5374 5373 5372 5372 5372 5374 5375 5377 5379 5382 5385 5387 5390 5393 5397
5415 5413 5413 5412 5412 5411 5410 5409 5408 5407 5405 5404 5401 5399 5397 5395 5393 5391 5388 5385 5383 5381 5379 5377 5375 5373 5371 5369 5368 5367 5366 5365 5365 5366 5367 5369 5372 5374 5377 5380 5383 5386 5389 5393
5405 5404 5404 5403 5402 5401 5400 5399 5398 5397 5395 5394 5392 5389 5387 5385 5383 5380 5378 5375 5373 5372 5370 5368 5366 5365 5363 5362 5361 5360 5360 5359 5359 5360 5361 5363 5366 5369 5372 5375 5378 5381 5385 5388
5397 5396 5395 5394 5393 5392 5391 5390 5388 5387 5385 5384 5382 5379 5377 5375 5373 5371 5368 5366 5364 5363 5361 5359 5358 5356 5355 5354 5354 5353 5353 5353 5353 5354 5356 5358 5360 5363 5367 5370 5373 5377 5380 5384
5388 5388 5387 5386 5385 5383 5382 5381 5379 5377 5375 5374 5372 5370 5368 5365 5363 5362 5360 5358 5356 5354 5353 5351 5350 5349 5348 5347 5347 5347 5347 5347 5348 5349 5351 5353 5355 5359 5362 5366 5370 5373 5377 5381
5381 5380 5379 5377 5376 5375 5373 5372 5370 5368 5367 5365 5363 5361 5359 5357 5355 5353 5352 5350 5348 5346 5345 5343 5342 5341 5340 5340 5340 5341 5341 5342 5343 5344 5346 5348 5351 5355 5359 5362 5366 5370 5374 5378
5373 5372 5371 5370 5368 5367 5365 5364 5362 5361 5359 5357 5355 5353 5352 5350 5347 5345 5344 5342 5340 5338 5336 5335 5334 5333 5333 5333 5334 5335 5335 5336 5338 5339 5341 5344 5348 5352 5355 5359 5363 5367 5371 5376
5366 5365 5364 5362 5361 5360 5358 5357 5355 5354 5352 5350 5348 5346 5345 5343 5341 5339 5337 5335 5333 5330 5329 5328 5327 5327 5327 5328 5329 5330 5330 5332 5333 5335 5338 5341 5345 5349 5353 5356 5361 5365 5369 5374
5359 5358 5357 5356 5355 5353 5352 5350 5349 5347 5345 5344 5342 5340 5338 5336 5334 5332 5330 5328 5326 5324 5323 5322 5321 5321 5322 5323 5324 5325 5326 5328 5329 5332 5335 5338 5342 5346 5350 5354 5359 5363 5367 5372
5353 5352 5351 5350 5349 5347 5346 5344 5343 5341 5339 5338 5336 5334 5332 5330 5328 5326 5324 5322 5320 5318 5317 5316 5316 5316 5317 5318 5319 5321 5322 5324 5327 5329 5332 5336 5340 5344 5349 5353 5357 5362 5366 5371
5348 5347 5346 5345 5343 5342 5341 5339 5337 5335 5333 5332 5330 5328 5326 5324 5322 5320 5318 5316 5315 5313 5312 5312 5312 5312 5313 5314 5316 5317 5319 5321 5324 5327 5330 5334 5339 5343 5347 5352 5356 5361 5366 5371
5343 5342 5341 5339 5338 5337 5335 5334 5332 5330 5328 5326 5325 5323 5321 5319 5317 5315 5313 5311 5310 5309 5308 5308 5308 5309 5310 5312 5313 5315 5317 5320 5323 5326 5329 5333 5338 5342 5347 5351 5356 5361 5366 5371
5337 5336 5335 5334 5333 5331 5330 5329 5327 5325 5324 5322 5320 5318 5316 5314 5312 5311 5309 5308 5306 5306 5306 5306 5306 5307 5308 5310 5312 5314 5316 5319 5322 5325 5329 5333 5337 5342 5346 5351 5356 5361 5367 5372
5333 5331 5330 5329 5328 5327 5325 5324 5323 5321 5320 5318 5317 5315 5313 5311 5309 5308 5306 5305 5305 5304 5304 5304 5305 5306 5308 5309 5311 5313 5316 5319 5322 5325 5329 5333 5337 5342 5347 5352 5357 5362 5368 5373
Wind_Speed
49 49 49 50 49 49 50 51 52 51 50 48 48 49 50 51 52 53 54 55 55 55 55 55 54 55 54 54 54 53 53 52 50 50 49 48 46 44 43 42 40 39 39 38
49 49 49 50 50 50 51 52 52 52 51 48 49 50 50 52 53 54 54 54 54 54 54 54 54 54 53 53 53 52 50 49 48 47 45 45 43 41 41 39 38 37 37 36
49 48 51 53 50 51 52 51 52 53 51 50 50 50 51 52 53 53 53 53 54 54 54 54 54 53 52 52 51 50 48 46 45 44 44 43 42 40 38 36 35 35 37 36
47 48 51 51 49 50 51 51 51 51 50 50 50 50 50 52 52 53 53 54 54 54 53 53 53 52 52 51 50 48 46 46 45 43 41 40 38 36 35 33 33 34 34 33
48 49 52 49 47 47 49 50 49 50 49 49 49 49 50 51 52 53 54 54 54 53 53 52 51 51 50 49 48 47 45 44 42 41 39 37 35 33 32 31 31 32 31 30
48 50 51 48 46 46 48 49 47 48 49 49 50 51 50 51 52 53 53 53 53 53 52 51 50 50 49 47 46 45 43 41 40 39 37 35 32 30 29 29 29 29 28 26
46 48 49 47 46 46 48 49 48 48 49 50 50 51 52 52 53 53 52 52 52 52 51 50 50 49 47 46 44 43 41 39 38 37 35 32 30 29 28 27 26 25 24 23
43 45 46 45 45 45 47 48 49 50 50 50 51 51 51 51 51 50 50 51 51 50 49 48 47 46 45 43 42 41 39 38 36 35 33 30 28 27 26 25 23 22 22 21
44 45 44 45 45 46 48 49 50 50 50 51 50 50 50 49 49 49 49 49 48 47 47 46 45 43 43 41 41 39 37 35 33 32 30 28 26 24 23 22 21 20 19 20
44 44 44 45 46 46 47 48 48 49 50 50 49 48 48 47 46 46 46 46 46 46 45 43 42 41 40 39 38 37 35 33 31 29 27 25 24 23 21 19 18 18 18 19
44 43 45 45 45 45 46 47 47 47 46 46 45 45 45 45 45 45 45 45 45 44 42 41 40 39 38 37 36 35 32 29 28 26 25 23 23 21 20 18 18 18 19 19
43 43 45 45 45 46 46 46 46 45 44 43 44 43 43 43 44 43 43 43 42 41 40 39 38 37 35 35 34 32 29 28 26 25 23 22 21 20 19 18 18 18 20 20
42 42 43 43 43 43 42 42 42 42 42 42 42 42 42 42 42 41 41 40 39 38 37 37 35 33 32 31 30 29 27 26 25 23 22 21 20 20 18 17 18 19 20 20
38 39 40 40 40 39 39 39 38 39 40 40 40 40 40 40 39 39 38 37 36 36 35 34 32 31 30 29 28 26 25 23 22 21 20 20 20 19 19 18 18 19 21 21
34 35 36 36 37 37 37 37 37 37 37 36 36 37 37 37 37 36 35 35 35 34 33 31 30 29 29 28 25 23 22 20 19 19 19 19 20 19 19 18 18 19 20 21
32 32 33 33 33 33 33 33 34 34 34 34 34 35 35 35 34 34 33 33 32 31 30 29 28 28 27 25 23 21 20 19 18 17 18 19 20 20 19 18 18 18 20 21
30 30 31 31 30 30 30 31 31 32 33 34 35 35 34 33 32 31 31 30 30 29 28 27 27 26 24 23 21 20 19 18 17 17 17 18 19 18 18 18 18 18 20 21
28 28 29 29 29 29 30 30 31 31 32 32 32 31 31 30 29 29 29 29 29 28 27 27 26 24 23 21 20 18 18 17 17 16 16 17 18 17 16 17 18 18 20 22
27 28 28 28 28 29 29 28 28 28 28 28 28 27 27 26 27 27 26 27 26 26 25 25 23 22 21 20 18 17 16 16 16 15 15 16 17 17 17 17 17 18 21 22
27 27 27 26 27 27 26 26 26 26 26 26 26 25 24 24 24 24 24 24 24 23 22 22 20 19 18 17 16 16 15 15 14 14 14 15 16 17 17 17 17 19 20 21
25 25 24 24 24 24 23 23 23 23 23 23 23 23 23 22 22 22 21 22 21 21 20 19 18 16 16 15 14 14 13 13 13 13 14 15 16 17 18 18 19 20 21 22
22 21 21 21 21 21 21 21 21 21 21 22 22 21 21 20 20 20 20 20 19 18 17 16 15 14 14 13 13 13 13 12 12 13 14 15 17 18 18 19 20 20 21 22
19 18 18 19 19 19 19 19 19 20 20 20 20 19 19 19 19 19 18 18 17 16 14 13 12 12 12 12 12 12 11 12 13 13 14 16 17 18 19 19 20 20 21 23
17 17 17 17 17 17 17 18 18 19 19 19 18 18 18 18 17 17 16 16 15 14 12 11 11 10 10 9 10 11 11 12 13 13 15 17 18 19 19 20 20 21 23 24
16 16 17 17 17 16 16 17 17 17 17 17 16 16 16 16 15 15 14 13 12 10 9 9 8 8 8 8 9 10 11 12 13 13 15 17 19 19 20 21 23 23 24 25
16 16 16 16 15 15 15 15 15 14 14 13 13 14 14 13 12 12 11 9 8 7 6 5 5 5 6 8 9 10 11 12 13 14 16 17 19 20 21 23 24 24 25 25
14 14 14 14 14 14 13 13 12 11 11 11 12 12 11 10 9 8 7 6 4 3 3 3 4 5 6 8 9 10 12 13 14 16 16 18 19 21 22 24 25 25 26 25
Wind_Direction
264 265 267 268 269 271 273 276 278 281 282 284 285 286 287 288 289 290 292 293 294 295 296 298 298 299 299 299 298 296 296 296 293 291 290 289 287 284 280 276 274 272 271 270
264 265 265 266 268 271 273 276 278 280 281 284 285 285 286 288 289 290 292 293 294 295 296 297 297 298 298 298 297 297 296 295 294 293 291 288 285 281 278 274 273 271 270 269
264 265 265 265 268 272 274 275 277 280 283 283 284 285 286 287 289 291 292 293 295 295 296 297 297 297 297 297 297 296 296 295 295 293 291 288 285 280 278 276 273 271 270 270
265 265 265 269 270 271 272 274 276 278 281 282 284 285 286 288 290 291 292 293 294 295 296 296 297 297 297 297 297 296 295 294 295 293 291 288 284 279 278 275 273 272 271 270
265 266 268 269 271 272 273 274 276 279 280 281 283 285 287 289 290 292 292 293 294 295 295 296 296 296 295 296 295 295 294 293 292 292 291 289 283 278 276 274 272 271 270 267
265 267 269 271 271 272 274 275 277 279 281 283 284 286 288 289 290 291 292 293 293 294 295 294 294 294 294 295 294 293 293 292 290 289 289 287 282 278 276 274 272 270 267 264
265 267 270 272 273 273 275 278 279 280 282 284 285 287 288 289 290 291 292 292 293 294 295 295 293 292 293 294 293 292 291 291 290 288 287 285 279 276 275 274 271 267 262 258
265 266 269 271 272 273 275 277 280 281 282 284 285 286 288 289 289 290 290 291 292 293 294 295 294 292 292 293 292 291 290 289 288 286 284 281 276 273 272 271 268 262 255 250
265 267 269 270 272 274 276 278 279 281 282 283 284 285 286 287 288 289 290 291 292 293 294 294 293 292 292 292 291 290 289 288 286 284 281 278 274 271 270 266 261 253 247 241
265 266 268 270 272 274 276 277 278 280 281 282 282 283 284 287 288 290 291 291 291 292 292 292 292 292 292 292 292 291 288 286 284 281 278 274 271 267 264 258 251 245 239 235
267 268 269 271 273 275 275 276 277 279 280 281 281 282 284 286 288 290 291 291 291 291 291 291 291 292 292 291 291 290 288 285 281 277 274 269 265 262 258 251 246 241 235 230
270 270 272 273 275 276 277 277 278 279 280 280 282 284 286 288 290 291 292 292 291 291 291 291 291 291 291 291 290 289 286 282 278 275 270 263 258 256 253 249 244 240 233 227
271 273 273 274 275 277 277 278 279 279 280 281 283 285 287 288 289 291 292 291 291 291 291 291 289 289 290 290 289 287 284 281 276 270 263 256 252 250 248 245 240 234 228 224
271 273 274 274 275 275 276 277 279 281 282 283 284 285 286 287 289 290 290 290 290 291 291 289 288 288 289 289 288 286 284 279 272 265 257 253 249 245 244 241 235 230 224 220
271 273 275 276 276 275 276 277 280 282 283 284 285 285 286 287 288 289 289 289 290 291 290 288 287 287 288 288 286 282 279 276 269 262 255 249 245 241 241 237 231 226 222 217
273 274 277 278 278 278 278 277 279 280 282 283 284 286 288 288 289 289 290 290 291 291 290 288 287 287 288 287 282 277 275 271 266 261 255 249 241 236 234 231 227 224 220 214
275 275 276 277 279 280 281 281 281 281 283 284 285 287 289 289 289 289 290 290 291 292 291 288 286 286 285 283 278 275 271 267 263 259 252 244 237 232 228 225 222 220 213 208
277 278 279 279 280 281 281 282 283 284 286 288 289 289 289 289 288 288 288 289 291 291 289 287 285 283 281 277 273 271 268 265 261 257 249 238 230 226 223 222 218 214 205 199
278 280 280 281 282 282 283 284 285 288 289 289 290 290 290 290 288 287 287 289 290 290 288 286 284 281 277 272 269 267 265 263 257 250 239 229 224 221 217 215 213 206 200 197
279 281 281 282 283 284 284 285 287 288 289 290 291 290 289 290 289 289 290 291 291 289 287 285 282 277 271 266 264 263 261 257 251 241 231 223 218 213 210 208 204 199 197 196
281 282 282 283 284 284 285 286 287 288 289 291 291 290 290 290 291 292 292 293 292 290 287 283 278 272 265 260 258 258 255 249 241 230 221 214 210 206 202 199 197 194 193 193
284 283 284 285 286 285 286 288 290 291 291 292 293 293 292 293 293 293 293 293 291 290 287 281 274 266 257 252 251 250 246 239 228 217 211 206 202 199 196 193 192 191 191 190
284 284 286 287 288 288 288 290 292 293 293 294 294 294 295 296 295 294 293 293 292 290 286 278 270 260 252 247 243 240 233 222 210 204 201 197 195 193 190 189 189 188 187 185
284 286 287 288 288 288 289 291 293 295 296 296 296 296 297 297 296 295 295 293 292 289 281 272 265 255 245 238 230 222 213 206 200 196 192 189 188 188 187 186 184 182 181 180
284 287 288 289 288 288 289 291 294 297 299 299 299 299 299 299 298 297 297 295 292 285 275 265 257 246 232 222 214 204 198 194 191 187 184 182 182 182 181 179 177 176 175 175
285 286 288 289 289 290 292 295 297 299 300 301 302 304 304 304 304 304 302 297 290 280 266 252 238 224 210 202 197 193 190 186 181 178 175 176 177 178 177 176 174 174 173 173
283 286 288 290 292 293 295 297 299 301 304 307 309 311 312 313 312 314 312 301 286 262 234 213 198 189 184 183 184 183 181 180 176 175 174 174 174 175 175 174 172 173 172 171